Regional Weather Roundup
Issued by NWS Sterling, VA

Home | Current Version | Previous Version | Text Only | Print | Product List | Glossary On
Versions: 1 2 3 4 5 6 7 8 9 10 11 12 13 14 15 16 17 18 19 20 21 22 23 24 25 26 27 28 29 30 31 32 33 34 35 36 37 38 39 40 41 42 43 44 45 46 47 48 49 50
000
ASUS41 KLWX 301711
RWRLWX

REGIONAL WEATHER ROUNDUP
NATIONAL WEATHER SERVICE BALTIMORE MD/WASHINGTON DC
100 PM EDT SAT MAY 30 2015

Note: "FAIR" indicates few or no clouds below 12,000 feet
with no significant weather and/or obstructions to visibility.
 TC=TEMPERATURE CELSIUS

 * =Non NWS site. Station does not report precipitation (e.g. rain,
    snow, etc.), thunder, or fog.

DCZ001-MDZ009-015-VAZ040>042-051-053>054-301800-
WASHINGTON METRO

CITY           SKY/WX    TMP DP  RH WIND       PRES   REMARKS
WASHINGTON NAT MOSUNNY   86  69  56 S15       30.16F HX  90
DULLES         MOSUNNY   85  66  53 S14       30.15F
ANDREWS AFB    MOSUNNY   84  66  55 S13       30.16F
FT BELVOIR     SUNNY     85  67  54 S10       30.16F
QUANTICO       SUNNY     81  70  69 S8        30.16F
COLLEGE PARK*  SUNNY     86  61  42 S7        30.15F
LEESBURG*      PTSUNNY   88  66  48 SW13      30.15F HX  90
MANASSAS*      SUNNY     84  66  54 S13       30.15F
GAITHERSBURG*  MOSUNNY   84  66  54 S9        30.19F

$$

MDZ006>007-011-014-301800-
BALTIMORE METRO

CITY           SKY/WX    TMP DP  RH WIND       PRES   REMARKS
BWI AIRPORT    PTSUNNY   86  63  45 S13       30.14F
MD SCIENCE CTR   N/A     87  62  43 MISG      30.14F
MARTIN STATE   MOSUNNY   82  73  74 SE16      30.18F
ANNAPOLIS      SUNNY     79  68  69 SE15      30.16F
FORT MEADE*    MOSUNNY   82  64  54 SW7       30.17F

$$

MDZ012-015-019>023-301800-
MARYLAND EASTERN SHORE

CITY           SKY/WX    TMP DP  RH WIND       PRES   REMARKS
OCEAN CITY     SUNNY     77  66  68 S8        30.22F
SALISBURY      MOSUNNY   83  64  52 S13       30.19F
BAY BRIDGE AP*   N/A    N/A N/A N/A S9        30.17F
CAMBRIDGE*     MOSUNNY   82  64  54 S9        30.18F
EASTON*        PTSUNNY   82  72  69 SW10      30.21F

$$

MDZ017>025-301800-
SOUTHERN MARYLAND

CITY           SKY/WX    TMP DP  RH WIND       PRES   REMARKS
PATUXENT RIVER PTSUNNY   78  69  73 SE13      30.18F
ST INIGOES       N/A     83  66  56 S9        30.18F
LEONARDTOWN*   MOSUNNY   82  64  54 S9        30.19F

$$

MDZ003>005-301800-
NORTH CENTRAL MARYLAND

CITY           SKY/WX    TMP DP  RH WIND       PRES   REMARKS
FREDERICK*     NOT AVBL
HAGERSTOWN APT SUNNY     83  66  56 S8        30.13F
WESTMINSTER*   MOSUNNY   88  66  48 S7        30.16F HX  90

$$

MDZ501>502-301800-
WESTERN MARYLAND

CITY           SKY/WX    TMP DP  RH WIND       PRES   REMARKS
OAKLAND*       CLOUDY    70  70 100 W7        30.23F
CUMBERLAND*    PTSUNNY   77  70  78 CALM      30.17F

$$

VAZ025>031-301800-
SHENANDOAH VALLEY

CITY           SKY/WX    TMP DP  RH WIND       PRES   REMARKS
WINCHESTER*    SUNNY     82  68  61 S5        30.15F
FRONT ROYAL*   FAIR      82  70  65 SE5       30.14F
LURAY*         FAIR      86  66  51 SW9       30.15F
NEW MARKET*    FAIR      85  67  54 SW7       30.12F
STAUNTON*      PTSUNNY   85  62  46 S10       30.19F
WAYNESBORO*    CLOUDY    70  66  85 E8G20     30.20F

$$

WVZ021-048>050-054>055-301800-
EASTERN WEST VIRGINIA PANHANDLE

CITY           SKY/WX    TMP DP  RH WIND       PRES   REMARKS
MARTINSBURG    SUNNY     84  67  56 S12       30.14F
PETERSBURG*    SUNNY     83  63  51 SE3       30.14F THUNDER

$$

VAZ036>039-050-301800-
CENTRAL FOOTHILLS

CITY           SKY/WX    TMP DP  RH WIND       PRES   REMARKS
CHARLOTTESVILL SUNNY     85  59  41 S10       30.16F
CULPEPER*      SUNNY     84  64  50 S7        30.16F
ORANGE*        SUNNY     86  61  42 S13G18    30.18F
GORDONSVILLE*  FAIR      83  64  52 SW8       30.16F
WARRENTON*     FAIR      87  67  52 S8G17     30.15F

$$

VAZ055>057-301800-
NORTH AND CENTRAL PIEDMONT

CITY           SKY/WX    TMP DP  RH WIND       PRES   REMARKS
FREDERICKSBRG* MOSUNNY   87  65  47 S10       30.15F
STAFFORD*      MOSUNNY   83  64  52 S3        30.20F

$$

NCZ024-NYZ072-PAZ021-071-VAZ022-071-301800-
OTHER REGIONAL OBSERVATIONS

CITY           SKY/WX    TMP DP  RH WIND       PRES   REMARKS
NEW YORK CITY  MOSUNNY   82  64  54 VRB6      30.18F
PHILADELPHIA   MOSUNNY   84  66  54 S9        30.16F
PITTSBURGH     PTSUNNY   82  64  54 S12       30.09F
ROANOKE        MOSUNNY   81  63  54 S7        30.20F
RICHMOND       PTSUNNY   84  66  54 S10       30.18F
RALEIGH        PTSUNNY   81  66  60 S6        30.20F

$$

ANZ530>537-301800-
MARINE OBSERVATIONS

STATION/POSITION TIME  TEMP    WIND        PRES
                       AIR SEA DIR/SP/G
                 (UTC) (F)     (DEG/KT/KT) (MB)
THOMAS PT LIGHT  1700   74 72  160/ 14/ 15 1022.1F
BALT KEY BRIDGE  1600   81     180/ 10/ 12 1021.2F
COVE POINT       1600   71     180/ 15/ 17 1023.2F
LEWISETTA        1600   80 76              1022.2F
SOLOMONS ISLAND  1600      74                N/A
PINEY POINT      1600          150/  9/ 10   N/A

$$



USA.gov is the U.S. government's official web portal to all federal, state and local government web resources and services.